Location: Mountain Grove
(34.0887°N, 86.6172°W)
Time: 21:13:40
(UTC+00:00)

Cosmos 1697 Rocket - Pass Details

Date: 14 July 2020
Orbit: 834 x 842 km, 71.0° (Epoch: 08 August)

Event Time Altitude Azimuth Distance (km) Brightness Sun altitude
Rises 08:59:39 0° 328° (NNW) 3,387 6.0 -18.7°
Reaches altitude 10° 09:02:17 10° 319° (NW) 2,448 5.1 -18.3°
Maximum altitude 09:07:16 34° 257° (WSW) 1,350 3.3 -17.6°
Enters shadow 09:08:46 29° 226° (SW) 1,481 3.4 -17.4°
